Regional Weather Roundup
Issued by NWS Cleveland, OH

Home | Current Version | Previous Version | Graphics & Text | Print | Product List | Glossary On
Versions: 1 2 3 4 5 6 7 8 9 10 11 12 13 14 15 16 17 18 19 20 21 22 23 24 25 26 27 28 29 30 31 32 33 34 35 36 37 38 39 40 41 42 43 44 45 46 47 48 49 50
000
ASUS41 KCLE 262100
RWRCLE
OHIO REGIONAL WEATHER ROUNDUP
NATIONAL WEATHER SERVICE WILMINGTON, OH
400 PM EST FRI DEC 26 2014

NOTE: "FAIR" INDICATES FEW OR NO CLOUDS BELOW 12,000 FEET WITH NO
SIGNIFICANT WEATHER AND/OR OBSTRUCTIONS TO VISIBILITY.

OHZ001>008-015>018-024>027-034-035-043-044-262200-
   NORTHWEST OHIO

CITY           SKY/WX    TMP DP  RH WIND       PRES   REMARKS
DEFIANCE       MOSUNNY   48  39  71 SW10      30.10R
FINDLAY        MOSUNNY   49  39  68 S14       30.10S
TOLEDO EXPRESS MOCLDY    47  38  71 SW12      30.10R
TOLEDO METCALF PTCLDY    47  37  68 SW13      30.11R
LIMA           MOSUNNY   48  38  68 S10G18    30.11S
$$

OHZ009>014-019>023-028>033-038-089-262200-
   NORTHEAST OHIO

CITY           SKY/WX    TMP DP  RH WIND       PRES   REMARKS
CLE-HOPKINS    PTCLDY    49  36  61 SW10      30.15R
CLE-LAKEFRONT  CLEAR     50  35  56 S16       30.12R
CUY CO. ARPT   MOCLDY    50  37  62 S15       30.13R
LORAIN-ELYRIA  CLEAR     48  37  65 SW15      30.13R
ASHTABULA      CLEAR     48  34  58 S15       30.13R
AKRON-CANTON   PTCLDY    49  35  58 SW12      30.15R
WOOSTER        NOT AVBL
MANSFIELD      CLEAR     46  36  68 S14       30.14R
YOUNGSTOWN     MOCLDY    48  33  56 SW12      30.14S
$$

OHZ042-051>053-060>062-070>072-077>081-262200-
  SOUTHWEST OHIO

CITY           SKY/WX    TMP DP  RH WIND       PRES   REMARKS
CINC-COVINGTON PTSUNNY   52  33  48 SW12G17   30.18R
CINC-LUNKEN    CLOUDY    53  37  54 SW9       30.19S
HAMILTON       CLOUDY    52  35  52 S9        30.18R
DAYTON         NOT AVBL
WRIGHT-PAT AFB CLOUDY    50  37  62 S8        30.16S
DAYTON GENERAL CLOUDY    50  36  58 SW9       30.16R
WILMINGTON     CLOUDY    47  37  68 S9        30.17S
$$

OHZ036-037-039>041-045>050-054>059-063>069-073>076-082>088-262200-
  CENTRAL AND SOUTHEAST OHIO

CITY           SKY/WX    TMP DP  RH WIND       PRES   REMARKS
COLUMBUS       CLOUDY    47  36  65 SW7       30.18S
OSU AIRPORT    CLOUDY    47  36  65 S13       30.17S
BOLTON FIELD   NOT AVBL
RICKENBACK AFB NOT AVBL
NEWARK         PTSUNNY   48  37  65 SW8       30.18R
MARION         PTCLDY    44  37  76 S12       30.15R
LANCASTER      CLOUDY    48  36  63 S8        30.19S
ZANESVILLE     MOCLDY    47  34  60 S8        30.20R
NEW PHILLY     PTCLDY    48  33  56 SW9G18    30.20R
$$


USA.gov is the U.S. government's official web portal to all federal, state and local government web resources and services.